This demonstration page uses our WeatherBlox Daily Observations layout. Learn more.

Left ArrowRight Arrow

41.12389, -100.76542

Hourly Observations for March 1, 2020

Temp ( °F °C ) Dew Point ( °F °C ) Humidity (%) Winds ( mph kmh ) Pressure ( in mb ) Visibility ( mi km ) Precip ( " mm )
12:53 am 00:53 Clear 33 0.6 22 -5.6 64 64 Calm 29.72 1007 10 16 0.00 0.00
1:53 am 01:53 Clear 29 -1.7 20 -6.7 69 69 Calm 29.71 1006 10 16 0.00 0.00
2:53 am 02:53 Clear 28 -2.2 21 -6.1 75 75 NNW 8 13 29.70 1006 10 16 0.00 0.00
3:53 am 03:53 Clear 28 -2.2 20 -6.7 72 72 VRB 5 7 29.71 1006 10 16 0.00 0.00
4:53 am 04:53 Clear 27 -2.8 20 -6.7 75 75 NNW 6 9 29.74 1007 10 16 0.00 0.00
5:53 am 05:53 Clear 27 -2.8 19 -7.2 72 72 NW 9 15 29.79 1009 10 16 0.00 0.00
6:53 am 06:53 Clear 35 1.7 24 -4.4 64 64 NNE 7 11 29.81 1010 10 16 0.00 0.00
7:53 am 07:53 Sunny 35 1.7 25 -3.9 67 67 N 8 13 29.84 1011 10 16 0.00 0.00
8:53 am 08:53 Sunny 40 4.4 27 -2.8 60 60 N 9 15 29.86 1011 10 16 0.00 0.00
9:53 am 09:53 Sunny 46 7.8 25 -3.9 44 44 NE 15 24 29.88 1012 10 16 0.00 0.00
10:53 am 10:53 Sunny 48 8.9 22 -5.6 36 36 NNE 17 28 29.90 1012 10 16 0.00 0.00
11:53 am 11:53 Sunny 52 11.1 21 -6.1 30 30 NE 17 28 29.89 1012 10 16 0.00 0.00
12:53 pm 12:53 Sunny 54 12.2 22 -5.6 29 29 NNE 18 30 29.88 1012 10 16 0.00 0.00
1:53 pm 13:53 Sunny 54 12.2 22 -5.6 29 29 NNE 16 26 29.87 1012 10 16 0.00 0.00
2:53 pm 14:53 Sunny 56 13.3 21 -6.1 26 26 NNE 16 26 29.86 1011 10 16 0.00 0.00
3:53 pm 15:53 Sunny 53 11.7 21 -6.1 28 28 NE 16 26 29.89 1012 10 16 0.00 0.00
4:53 pm 16:53 Partly Cloudy 50 10 19 -7.2 29 29 NNE 21 33 29.89 1012 10 16 0.00 0.00
5:53 pm 17:53 Sunny 47 8.3 19 -7.2 33 33 NNE 16 26 29.94 1014 10 16 0.00 0.00
6:53 pm 18:53 Clear 41 5 18 -7.8 39 39 N 10 17 29.98 1015 10 16 0.00 0.00
7:53 pm 19:53 Clear 38 3.3 20 -6.7 48 48 N 9 15 30.01 1016 10 16 0.00 0.00
8:53 pm 20:53 Partly Cloudy 32 0 21 -6.1 64 64 NNW 6 9 30.04 1017 10 16 0.00 0.00
9:53 pm 21:53 Partly Cloudy 34 1.1 22 -5.6 61 61 Calm 30.03 1017 10 16 0.00 0.00
10:53 pm 22:53 Cloudy 36 2.2 24 -4.4 62 62 N 7 11 30.03 1017 10 16 0.00 0.00
11:53 pm 23:53 Cloudy with Light Snow 33 0.6 26 -3.3 75 75 NNE 13 20 30.03 1017 3 5 0.00 0.00

Powered by AerisWeather